カタログに戻る

COSMOS 1275 DEB

運用中PO
NORAD 42226·DEBRIS·🇷🇺 Russia

打ち上げ Jun 4, 1981 から Plesetsk Cosmodrome

Loading…

次のパス (今後24時間)

TLE

経年Source: Space-Track

元期: Sep 4, 2026, 16:38 UTC

1 42226U 81053US  26247.69316864  .00000414  00000-0  44233-3 0  9995
2 42226  82.9544 146.6671 0111170 326.1485  33.2604 13.69163741638265

AllMySatでCOSMOS 1275 DEBをリアルタイム追跡

Download on the App Store